Weather History for Charlottesville, VA

Change the Weather History Date:

Saturday, January 18, 2014

  Actual Average Record
Temperature  
Mean Temperature 31 °F 35 °F  
Max Temperature 38 °F 44 °F 70 °F (1973)
Min Temperature 24 °F 26 °F -3 °F (1982)
Degree Days  
Heating Degree Days 34 30  
Month to date heating degree days 566 540  
Since 1 July heating degree days 2231 2276  
Cooling Degree Days 0 0  
Month to date cooling degree days 0 0  
Year to date cooling degree days 0 0  
Moisture  
Dew Point 10 °F    
Average Humidity 51    
Maximum Humidity 70    
Minimum Humidity 32    
Precipitation  
Precipitation 0.00 in 0.09 in 0.59 in (2006)
Month to date precipitation 2.21 1.63  
Year to date precipitation 2.21 1.63  
Sea Level Pressure  
Sea Level Pressure 29.92 in    
Wind  
Wind Speed 7 mph (WNW)    
Max Wind Speed 16 mph    
Max Gust Speed 25 mph    
Visibility 10 miles    
Events      
T = Trace of Precipitation, MM = Missing Value Source: NWS Daily Summary

Daily Weather History Graph

Daily Weather History Graph

Search for Another Location

Airport:

Trip Planner

Search our weather history database for the weather conditions in past years. The results will help you decide how hot, cold, wet, or windy it might be!

Date:

Astronomy

Jan. 18, 2014 Rise Set
Actual Time 7:27 AM EST 5:21 PM EST
Civil Twilight 6:59 AM EST 5:49 PM EST
Nautical Twilight 6:26 AM EST 6:22 PM EST
Astronomical Twilight 5:55 AM EST 6:53 PM EST
Moon 7:58 PM EST (1/18) 8:29 AM EST (1/18)
Length of Visible Light 10h 50m
Length of Day
9h 53m
Waning Gibbous, 94% of the Moon is Illuminated
Jan 18
Waning Gibbous
Jan 24
Last Quarter
Jan 30
New
Feb 6
First Quarter
Feb 14
Full

Hourly Weather History & Observations

Time (EST) Temp. Windchill Dew Point Humidity Pressure Visibility Wind Dir Wind Speed Gust Speed Precip Events Conditions
12:53 AM 37.0 °F 32.4 °F 30.0 °F 76% 29.82 in 10.0 mi WNW 5.8 mph - 0.00 in   Overcast
1:53 AM 35.1 °F 31.0 °F 26.1 °F 70% 29.81 in 10.0 mi West 4.6 mph - N/A   Clear
2:53 AM 33.1 °F 26.1 °F 24.1 °F 70% 29.82 in 10.0 mi NNW 8.1 mph - N/A   Scattered Clouds
3:53 AM 33.1 °F 26.9 °F 16.0 °F 50% 29.83 in 10.0 mi Variable 6.9 mph - N/A   Scattered Clouds
4:53 AM 30.9 °F 22.8 °F 12.0 °F 46% 29.83 in 10.0 mi WNW 9.2 mph - N/A   Scattered Clouds
5:53 AM 28.9 °F 18.2 °F 9.0 °F 43% 29.84 in 10.0 mi NW 13.8 mph - N/A   Partly Cloudy
6:53 AM 27.0 °F 15.6 °F 9.0 °F 47% 29.86 in 10.0 mi NW 13.8 mph - N/A   Clear
7:53 AM 26.1 °F 14.5 °F 7.0 °F 44% 29.89 in 10.0 mi NNW 13.8 mph - N/A   Clear
8:53 AM 27.0 °F 14.7 °F 6.1 °F 41% 29.93 in 10.0 mi NNW 16.1 mph - N/A   Clear
9:53 AM 27.0 °F 15.6 °F 5.0 °F 39% 29.95 in 10.0 mi NW 13.8 mph 25.3 mph N/A   Clear
10:53 AM 28.0 °F 20.0 °F 6.1 °F 39% 29.96 in 10.0 mi WNW 8.1 mph - N/A   Clear
11:53 AM 28.9 °F 21.9 °F 5.0 °F 36% 29.95 in 10.0 mi West 6.9 mph - N/A   Clear
12:53 PM 30.9 °F 24.3 °F 7.0 °F 37% 29.94 in 10.0 mi Variable 6.9 mph 16.1 mph N/A   Clear
1:53 PM 30.9 °F 23.5 °F 6.1 °F 35% 29.93 in 10.0 mi WSW 8.1 mph - N/A   Clear
2:53 PM 32.0 °F 24.8 °F 7.0 °F 35% 29.94 in 10.0 mi NW 8.1 mph - N/A   Clear
3:53 PM 33.1 °F 26.1 °F 7.0 °F 34% 29.94 in 10.0 mi West 8.1 mph - N/A   Clear
4:53 PM 30.9 °F 26.2 °F 7.0 °F 37% 29.95 in 10.0 mi Variable 4.6 mph - N/A   Clear
5:53 PM 28.9 °F 25.2 °F 8.1 °F 41% 29.96 in 10.0 mi SW 3.5 mph - N/A   Clear
6:53 PM 28.0 °F 21.7 °F 8.1 °F 43% 29.98 in 10.0 mi Variable 5.8 mph - N/A   Clear
7:53 PM 27.0 °F - 8.1 °F 45% 29.97 in 10.0 mi Calm Calm - N/A   Clear
8:53 PM 24.1 °F 17.0 °F 9.0 °F 53% 29.97 in 10.0 mi SSW 5.8 mph - N/A   Clear
9:53 PM 27.0 °F - 9.0 °F 47% 29.98 in 10.0 mi Calm Calm - N/A   Clear
10:53 PM 28.0 °F - 10.0 °F 47% 29.97 in 10.0 mi Calm Calm - N/A   Overcast
11:53 PM 28.0 °F 24.2 °F 10.0 °F 47% 29.95 in 10.0 mi SSW 3.5 mph - N/A   Overcast